Hourly Weather Golcy

Today, 7 May, Friday

Time Temperature Precipitation Wind Pressure Humidity
00:00 +4°C° 0 mm 3 mps 745 mmHg 85%
01:00 +4°C° 0 mm 3 mps 745 mmHg 88%
02:00 +4°C° 0 mm 3 mps 745 mmHg 90%
03:00 +4°C° 0 mm 3 mps 745 mmHg 91%
04:00 +3°C° 0 mm 3 mps 745 mmHg 92%
05:00 +4°C° 0 mm 2 mps 744 mmHg 93%
06:00 +5°C° 0 mm 3 mps 744 mmHg 87%
07:00 +7°C° 0 mm 3 mps 744 mmHg 81%
08:00 +8°C° 0 mm 4 mps 744 mmHg 75%
09:00 +8°C° 0.2 mm 4 mps 744 mmHg 78%
10:00 +8°C° 0.2 mm 4 mps 744 mmHg 81%
11:00 +8°C° 0.2 mm 5 mps 744 mmHg 84%
12:00 +8°C° 0.3 mm 4 mps 743 mmHg 85%
13:00 +8°C° 0.3 mm 4 mps 743 mmHg 87%
14:00 +8°C° 0.3 mm 4 mps 742 mmHg 88%
15:00 +8°C° 0.1 mm 4 mps 742 mmHg 86%
16:00 +10°C° 0.1 mm 4 mps 741 mmHg 83%
17:00 +11°C° 0.1 mm 4 mps 741 mmHg 81%
18:00 +10°C° 0 mm 3 mps 741 mmHg 85%
19:00 +9°C° 0 mm 2 mps 741 mmHg 89%
20:00 +8°C° 0 mm 2 mps 741 mmHg 93%
21:00 +8°C° 0 mm 2 mps 741 mmHg 93%
22:00 +8°C° 0 mm 2 mps 741 mmHg 93%
23:00 +7°C° 0 mm 2 mps 741 mmHg 94%

Tomorrow, 8 May, Saturday

Time Temperature Precipitation Wind Pressure Humidity
00:00 +7°C° 0.1 mm 2 mps 741 mmHg 94%
01:00 +7°C° 0.1 mm 3 mps 742 mmHg 94%
02:00 +5°C° 0.1 mm 3 mps 742 mmHg 94%
03:00 +5°C° 0.1 mm 4 mps 742 mmHg 94%
04:00 +5°C° 0.1 mm 5 mps 742 mmHg 94%
05:00 +3°C° 0.1 mm 5 mps 743 mmHg 93%
06:00 +3°C° 1 mm 5 mps 743 mmHg 94%
07:00 +2°C° 1 mm 5 mps 744 mmHg 95%
08:00 +2°C° 1 mm 6 mps 744 mmHg 95%
09:00 +3°C° 0.7 mm 6 mps 745 mmHg 88%
10:00 +4°C° 0.7 mm 6 mps 746 mmHg 81%
11:00 +5°C° 0.7 mm 7 mps 747 mmHg 75%
12:00 +5°C° 0 mm 7 mps 748 mmHg 73%
13:00 +5°C° 0 mm 7 mps 749 mmHg 72%
14:00 +5°C° 0 mm 7 mps 749 mmHg 70%
15:00 +5°C° 0 mm 6 mps 750 mmHg 69%
16:00 +7°C° 0 mm 5 mps 750 mmHg 68%
17:00 +7°C° 0 mm 5 mps 750 mmHg 67%
18:00 +6°C° 0 mm 4 mps 751 mmHg 73%
19:00 +5°C° 0 mm 4 mps 751 mmHg 79%
20:00 +4°C° 0 mm 3 mps 751 mmHg 85%
21:00 +3°C° 0 mm 3 mps 752 mmHg 87%
22:00 +2°C° 0 mm 3 mps 752 mmHg 90%
23:00 +2°C° 0 mm 3 mps 752 mmHg 93%

Day after tomorrow, 9 May, Sunday

Time Temperature Precipitation Wind Pressure Humidity
00:00 +2°C° 0 mm 3 mps 753 mmHg 93%
01:00 +1°C° 0 mm 3 mps 753 mmHg 94%
02:00 +1°C° 0 mm 3 mps 753 mmHg 95%
03:00 +2°C° 0 mm 2 mps 754 mmHg 95%
04:00 +2°C° 0 mm 2 mps 754 mmHg 95%
05:00 +1°C° 0 mm 2 mps 755 mmHg 96%
06:00 +3°C° 0 mm 2 mps 755 mmHg 89%
07:00 +5°C° 0 mm 2 mps 755 mmHg 82%
08:00 +7°C° 0 mm 2 mps 756 mmHg 75%
09:00 +9°C° 0 mm 2 mps 756 mmHg 67%
10:00 +10°C° 0 mm 2 mps 756 mmHg 59%
11:00 +13°C° 0 mm 2 mps 756 mmHg 51%
12:00 +13°C° 0 mm 2 mps 756 mmHg 48%
13:00 +14°C° 0 mm 2 mps 756 mmHg 46%
14:00 +15°C° 0 mm 2 mps 756 mmHg 44%
15:00 +15°C° 0 mm 2 mps 756 mmHg 44%
16:00 +15°C° 0 mm 2 mps 756 mmHg 44%
17:00 +16°C° 0 mm 2 mps 755 mmHg 45%
18:00 +14°C° 0 mm 2 mps 756 mmHg 52%
19:00 +12°C° 0 mm 2 mps 756 mmHg 59%
20:00 +9°C° 0 mm 3 mps 756 mmHg 67%
21:00 +8°C° 0 mm 3 mps 756 mmHg 68%
22:00 +8°C° 0 mm 3 mps 756 mmHg 70%
23:00 +7°C° 0 mm 3 mps 756 mmHg 71%

10 May, Monday

Time Temperature Precipitation Wind Pressure Humidity
00:00 +7°C° 0 mm 3 mps 757 mmHg 72%
01:00 +5°C° 0 mm 3 mps 757 mmHg 74%
02:00 +5°C° 0 mm 3 mps 757 mmHg 75%
03:00 +5°C° 0 mm 3 mps 757 mmHg 76%
04:00 +4°C° 0 mm 3 mps 757 mmHg 77%
05:00 +4°C° 0 mm 3 mps 757 mmHg 79%
06:00 +7°C° 0 mm 3 mps 757 mmHg 73%
07:00 +8°C° 0 mm 4 mps 757 mmHg 67%
08:00 +12°C° 0 mm 4 mps 757 mmHg 61%
09:00 +13°C° 0 mm 5 mps 757 mmHg 56%
10:00 +15°C° 0 mm 6 mps 757 mmHg 51%
11:00 +16°C° 0 mm 6 mps 757 mmHg 46%
12:00 +17°C° 0 mm 6 mps 757 mmHg 45%
13:00 +19°C° 0 mm 6 mps 757 mmHg 43%
14:00 +19°C° 0 mm 6 mps 756 mmHg 42%
15:00 +19°C° 0 mm 6 mps 756 mmHg 45%
16:00 +19°C° 0 mm 5 mps 756 mmHg 49%
17:00 +19°C° 0 mm 5 mps 756 mmHg 52%
18:00 +17°C° 0 mm 4 mps 756 mmHg 58%
19:00 +14°C° 0 mm 4 mps 756 mmHg 65%
20:00 +12°C° 0 mm 4 mps 756 mmHg 71%
21:00 +11°C° 0 mm 4 mps 756 mmHg 73%
22:00 +11°C° 0 mm 4 mps 756 mmHg 75%
23:00 +10°C° 0 mm 4 mps 757 mmHg 76%

11 May, Tuesday

Time Temperature Precipitation Wind Pressure Humidity
00:00 +10°C° 0 mm 4 mps 757 mmHg 78%
01:00 +8°C° 0 mm 4 mps 757 mmHg 79%
02:00 +8°C° 0 mm 4 mps 757 mmHg 81%
03:00 +7°C° 0 mm 4 mps 757 mmHg 81%
04:00 +7°C° 0 mm 4 mps 757 mmHg 80%
05:00 +6°C° 0 mm 4 mps 756 mmHg 80%
06:00 +8°C° 0 mm 5 mps 756 mmHg 74%
07:00 +10°C° 0 mm 5 mps 756 mmHg 67%
08:00 +11°C° 0 mm 6 mps 756 mmHg 61%
09:00 +14°C° 0 mm 6 mps 756 mmHg 56%
10:00 +15°C° 0 mm 6 mps 756 mmHg 50%
11:00 +17°C° 0 mm 6 mps 756 mmHg 44%
12:00 +19°C° 0 mm 6 mps 755 mmHg 42%
13:00 +19°C° 0 mm 5 mps 755 mmHg 40%
14:00 +20°C° 0 mm 5 mps 755 mmHg 39%
15:00 +20°C° 0 mm 5 mps 754 mmHg 44%
16:00 +20°C° 0 mm 5 mps 754 mmHg 49%
17:00 +20°C° 0 mm 4 mps 754 mmHg 55%
18:00 +18°C° 0 mm 4 mps 753 mmHg 62%
19:00 +15°C° 0 mm 4 mps 753 mmHg 69%
20:00 +14°C° 0 mm 3 mps 753 mmHg 77%
21:00 +13°C° 0 mm 3 mps 753 mmHg 79%
22:00 +12°C° 0 mm 3 mps 753 mmHg 82%
23:00 +11°C° 0 mm 4 mps 753 mmHg 85%

12 May, Wednesday

Time Temperature Precipitation Wind Pressure Humidity
00:00 +11°C° 0 mm 3 mps 753 mmHg 87%
01:00 +11°C° 0 mm 3 mps 752 mmHg 89%
02:00 +10°C° 0 mm 3 mps 752 mmHg 92%
03:00 +10°C° 0 mm 3 mps 752 mmHg 93%
04:00 +10°C° 0 mm 3 mps 752 mmHg 95%
05:00 +10°C° 0 mm 3 mps 752 mmHg 96%
06:00 +12°C° 0 mm 3 mps 751 mmHg 90%
07:00 +14°C° 0 mm 4 mps 751 mmHg 85%
08:00 +17°C° 0 mm 4 mps 751 mmHg 79%
09:00 +17°C° 0 mm 5 mps 751 mmHg 73%
10:00 +19°C° 0 mm 6 mps 750 mmHg 67%
11:00 +20°C° 0 mm 6 mps 750 mmHg 61%
12:00 +20°C° 0.1 mm 6 mps 749 mmHg 62%
13:00 +20°C° 0.1 mm 7 mps 749 mmHg 63%
14:00 +20°C° 0.1 mm 7 mps 749 mmHg 63%
15:00 +18°C° 0.2 mm 7 mps 748 mmHg 69%
16:00 +17°C° 0.2 mm 7 mps 748 mmHg 75%
17:00 +16°C° 0.2 mm 7 mps 748 mmHg 81%
18:00 +15°C° 0.1 mm 7 mps 748 mmHg 83%
19:00 +12°C° 0.1 mm 7 mps 748 mmHg 84%
20:00 +11°C° 0.1 mm 6 mps 748 mmHg 86%
21:00 +10°C° 0 mm 6 mps 748 mmHg 86%
22:00 +9°C° 0 mm 6 mps 748 mmHg 87%
23:00 +9°C° 0 mm 5 mps 748 mmHg 88%
Show more